GW1618 Weather Reports


time (UTC)temp
F
wind
direction
speed
knots
gust
knots
rain 1hr
in
rain 24hr
in
rain mn
in
humidity
%
barometer
mb
20260901063433 62 359 0.0 0.9 0.00 0.00 0.00 71 1007.7
20260901063234 62 359 0.9 0.9 0.00 0.00 0.00 71 1007.7
20260901062411 62 359 0.9 1.7 0.00 0.00 0.00 69 1007.7
20260901061910 62 359 0.9 1.7 0.00 0.00 0.00 68 1007.7
20260901061403 62 359 1.7 2.6 0.00 0.00 0.00 70 1007.7
20260901060904 62 359 1.7 2.6 0.00 0.00 0.00 68 1007.7
20260901060401 63 13 1.7 2.6 0.00 0.00 0.00 71 1007.7
20260901055902 63 13 0.9 2.6 0.00 0.00 0.00 70 1007.7
20260901055409 64 9 0.9 1.7 0.00 0.00 0.00 69 1007.8
20260901054905 64 359 0.9 1.7 0.00 0.00 0.00 68 1007.8
20260901054339 65 331 0.9 1.7 0.00 0.00 0.00 65 1007.8
20260901053833 65 331 0.0 1.7 0.00 0.00 0.00 64 1007.8
20260901053338 65 331 0.0 0.9 0.00 0.00 0.00 64 1007.8
20260901053051 65 331 0.9 1.7 0.00 0.00 0.00 62 1007.8
20260901052335 65 331 1.7 2.6 0.00 0.00 0.00 61 1007.8
20260901051833 65 331 2.6 3.5 0.00 0.00 0.00 61 1007.8
20260901051610 66 330 2.6 3.5 0.00 0.00 0.00 62 1007.8
20260901051102 66 337 2.6 3.5 0.00 0.00 0.00 64 1007.8
20260901050253 66 359 2.6 3.5 0.00 0.00 0.00 64 1007.8
20260901050114 66 20 2.6 3.5 0.00 0.00 0.00 60 1007.8
20260901045256 67 32 2.6 4.3 0.00 0.00 0.00 62 1007.8
20260901045054 67 27 2.6 4.3 0.00 0.00 0.00 59 1007.8
20260901044535 67 36 2.6 4.3 0.00 0.00 0.00 59 1007.8
20260901043740 67 24 3.5 6.1 0.00 0.00 0.00 59 1007.6
20260901043238 68 4 3.5 6.1 0.00 0.00 0.00 59 1007.6
20260901042737 68 24 4.3 7.8 0.00 0.00 0.00 57 1007.6
20260901042235 68 15 4.3 7.8 0.00 0.00 0.00 56 1007.6
20260901041738 68 21 4.3 7.8 0.00 0.00 0.00 57 1007.6
20260901041547 68 32 3.5 5.2 0.00 0.00 0.00 56 1007.6
20260901041102 68 16 2.6 5.2 0.00 0.00 0.00 55 1007.6
20260901040235 69 27 2.6 4.3 0.00 0.00 0.00 58 1007.6
20260901035739 69 29 2.6 5.2 0.00 0.00 0.00 55 1007.6
20260901035232 69 353 3.5 5.2 0.00 0.00 0.00 53 1007.3
20260901034733 69 346 3.5 5.2 0.00 0.00 0.00 53 1007.3
20260901034234 69 38 3.5 5.2 0.00 0.00 0.00 55 1007.3
20260901033729 69 350 2.6 4.3 0.00 0.00 0.00 54 1007.1
20260901033224 70 344 2.6 3.5 0.00 0.00 0.00 55 1007.1
20260901032725 70 359 1.7 3.5 0.00 0.00 0.00 54 1007.1
20260901032226 71 354 1.7 3.5 0.00 0.00 0.00 53 1007.1
20260901031720 71 352 2.6 5.2 0.00 0.00 0.00 53 1007.1
20260901031217 71 348 2.6 5.2 0.00 0.00 0.00 52 1007.1
20260901030717 71 359 2.6 5.2 0.00 0.00 0.00 50 1006.8
20260901030223 72 33 3.5 5.2 0.00 0.00 0.00 49 1006.8
20260901025718 72 30 3.5 5.2 0.00 0.00 0.00 49 1006.8
20260901025211 73 70 3.5 5.2 0.00 0.00 0.00 49 1006.7
20260901024711 73 16 3.5 6.1 0.00 0.00 0.00 48 1006.7
20260901024220 73 18 3.5 6.1 0.00 0.00 0.00 47 1006.7
20260901023710 74 42 3.5 6.1 0.00 0.00 0.00 47 1006.6
20260901023202 74 24 4.3 7.0 0.00 0.00 0.00 46 1006.6
20260901023013 75 47 4.3 7.0 0.00 0.00 0.00 45 1006.6
20260901022203 75 63 3.5 6.1 0.00 0.00 0.00 44 1006.7
20260901021705 75 34 3.5 5.2 0.00 0.00 0.00 44 1006.7
20260901021545 75 50 3.5 7.8 0.00 0.00 0.00 44 1006.7
20260901020701 76 62 3.5 7.8 0.00 0.00 0.00 44 1006.7
20260901020516 76 46 4.3 7.8 0.00 0.00 0.00 43 1006.7
20260901015648 76 79 3.5 7.8 0.00 0.00 0.00 39 1006.7
20260901015517 76 45 2.6 5.2 0.00 0.00 0.00 43 1006.9
20260901014645 76 34 3.5 7.0 0.00 0.00 0.00 42 1006.9
20260901014140 76 67 3.5 7.0 0.00 0.00 0.00 42 1007.0
20260901013640 76 65 4.3 7.8 0.00 0.00 0.00 42 1007.0
20260901013140 76 74 4.3 8.7 0.00 0.00 0.00 41 1007.0
20260901012644 76 70 4.3 8.7 0.00 0.00 0.00 41 1007.1
20260901012138 77 83 4.3 7.8 0.00 0.00 0.00 41 1007.1
20260901011634 77 90 3.5 6.1 0.00 0.00 0.00 41 1007.1
20260901011134 77 71 2.6 5.2 0.00 0.00 0.00 40 1007.1
20260901010636 78 114 1.7 5.2 0.00 0.00 0.00 39 1007.1
20260901010138 78 14 1.7 4.3 0.00 0.00 0.00 39 1007.1
20260901005632 77 65 3.5 5.2 0.00 0.00 0.00 40 1007.1
20260901005136 77 71 3.5 5.2 0.00 0.00 0.00 40 1007.1
20260901004631 77 77 3.5 5.2 0.00 0.00 0.00 39 1007.1
20260901004130 77 45 3.5 5.2 0.00 0.00 0.00 39 1007.1
20260901003637 77 74 3.5 5.2 0.00 0.00 0.00 40 1007.1
20260901003132 77 105 2.6 5.2 0.00 0.00 0.00 39 1007.1
20260901002924 78 39 1.7 3.5 0.00 0.00 0.00 39 1007.2
20260901002140 77 32 1.7 3.5 0.00 0.00 0.00 39 1007.2
20260901001643 77 344 1.7 5.2 0.00 0.00 0.00 39 1007.2
20260901001135 77 19 2.6 5.2 0.00 0.00 0.00 40 1007.4
20260901000620 77 340 2.6 4.3 0.00 0.00 0.00 40 1007.4
20260901000119 76 9 2.6 4.3 0.00 0.00 0.00 41 1007.4
20260831235616 76 4 2.6 3.5 0.00 0.00 0.00 43 1007.6
20260831235354 76 13 2.6 3.5 0.00 0.00 0.00 42 1007.6
20260831234609 77 340 2.6 4.3 0.00 0.00 0.00 41 1007.6
20260831234111 77 323 2.6 4.3 0.00 0.00 0.00 41 1007.6
20260831233604 77 346 2.6 4.3 0.00 0.00 0.00 40 1007.6
20260831233102 77 340 2.6 3.5 0.00 0.00 0.00 41 1007.6
20260831232606 76 329 2.6 5.2 0.00 0.00 0.00 40 1007.6
20260831232110 76 344 2.6 5.2 0.00 0.00 0.00 41 1007.6
20260831231607 76 359 2.6 4.3 0.00 0.00 0.00 41 1007.6
20260831231108 76 331 2.6 4.3 0.00 0.00 0.00 41 1007.7
20260831230602 76 359 2.6 4.3 0.00 0.00 0.00 42 1007.7
20260831225614 75 354 3.5 5.2 0.00 0.00 0.00 44 1007.9
20260831225105 75 354 3.5 5.2 0.00 0.00 0.00 43 1007.9
20260831224606 75 13 3.5 5.2 0.00 0.00 0.00 44 1007.9
20260831224102 75 359 3.5 5.2 0.00 0.00 0.00 45 1008.1
20260831223556 75 17 3.5 5.2 0.00 0.00 0.00 43 1008.1
20260831223340 75 359 2.6 4.3 0.00 0.00 0.00 43 1008.1
20260831222542 74 343 3.5 5.2 0.00 0.00 0.00 46 1008.3
20260831222047 74 352 4.3 5.2 0.00 0.00 0.00 45 1008.3
20260831221840 74 15 3.5 5.2 0.00 0.00 0.00 46 1008.3
20260831221043 74 9 4.3 6.1 0.00 0.00 0.00 44 1008.6
20260831220623 73 359 5.2 7.8 0.00 0.00 0.00 46 1008.6
20260831215539 73 16 5.2 7.8 0.00 0.00 0.00 48 1008.8
20260831215035 73 19 5.2 7.8 0.00 0.00 0.00 48 1008.8
20260831214530 72 342 6.1 7.8 0.00 0.00 0.00 49 1008.8
20260831214031 72 13 5.2 8.7 0.00 0.00 0.00 48 1009.1
20260831213531 72 14 5.2 8.7 0.00 0.00 0.00 49 1009.1
20260831213034 71 344 6.1 9.6 0.00 0.00 0.00 50 1009.1
20260831212529 71 13 5.2 9.6 0.00 0.00 0.00 52 1009.2
20260831212029 71 13 6.1 9.6 0.00 0.00 0.00 51 1009.2
20260831211537 71 339 7.0 9.6 0.00 0.00 0.00 51 1009.2
20260831211336 71 21 6.1 9.6 0.00 0.00 0.00 52 1009.3
20260831210530 71 9 5.2 8.7 0.00 0.00 0.00 54 1009.3
20260831210036 71 13 5.2 8.7 0.00 0.00 0.00 53 1009.3
20260831205535 70 30 5.2 8.7 0.00 0.00 0.00 55 1009.6
20260831205029 70 19 5.2 8.7 0.00 0.00 0.00 55 1009.6
20260831204515 70 9 6.1 9.6 0.00 0.00 0.00 55 1009.6
20260831204014 70 359 6.1 9.6 0.00 0.00 0.00 54 1009.7
20260831203507 70 334 5.2 8.7 0.00 0.00 0.00 54 1009.7
20260831203007 70 351 4.3 7.8 0.00 0.00 0.00 55 1009.7
20260831202503 70 4 3.5 6.1 0.00 0.00 0.00 55 1010.0
20260831202003 69 9 3.5 7.8 0.00 0.00 0.00 54 1010.0
20260831201506 69 4 4.3 7.8 0.00 0.00 0.00 56 1010.0
20260831201003 69 342 4.3 7.0 0.00 0.00 0.00 55 1010.2
20260831200504 68 9 5.2 8.7 0.00 0.00 0.00 58 1010.2
20260831200002 68 345 5.2 8.7 0.00 0.00 0.00 56 1010.2
20260831195504 68 354 5.2 8.7 0.00 0.00 0.00 57 1010.5
20260831195001 68 9 5.2 8.7 0.00 0.00 0.00 57 1010.5
20260831194502 68 9 4.3 7.8 0.00 0.00 0.00 58 1010.5
20260831194001 68 352 4.3 7.8 0.00 0.00 0.00 58 1010.8
20260831193501 67 340 4.3 7.8 0.00 0.00 0.00 59 1010.8
20260831193003 67 9 4.3 7.8 0.00 0.00 0.00 60 1010.8
20260831192505 67 331 4.3 7.8 0.00 0.00 0.00 59 1010.9
20260831192316 67 20 4.3 6.1 0.00 0.00 0.00 61 1010.9
20260831191502 67 14 4.3 7.0 0.00 0.00 0.00 62 1010.9
20260831191010 66 359 5.2 9.6 0.00 0.00 0.00 63 1011.2
20260831190505 66 354 4.3 9.6 0.00 0.00 0.00 61 1011.2
20260831190002 66 22 3.5 7.8 0.00 0.00 0.00 64 1011.2
20260831185454 66 42 5.2 13.0 0.00 0.00 0.00 62 1011.3
20260831184953 65 17 7.0 13.0 0.00 0.00 0.00 64 1011.3
20260831184537 65 344 7.0 9.6 0.00 0.00 0.00 64 1011.3
20260831183427 65 34 7.0 12.2 0.00 0.00 0.00 60 1011.4
20260831182932 65 9 6.1 9.6 0.00 0.00 0.00 64 1011.4
20260831182721 65 28 5.2 9.6 0.00 0.00 0.00 64 1011.8
20260831182218 65 335 4.3 9.6 0.00 0.00 0.00 63 1011.8
20260831181701 66 9 4.3 9.6 0.00 0.00 0.00 63 1011.8
20260831180903 65 59 4.3 10.4 0.00 0.00 0.00 63 1011.8
20260831180402 65 32 3.5 9.6 0.00 0.00 0.00 64 1011.8
20260831175902 65 53 4.3 11.3 0.00 0.00 0.00 64 1011.8
20260831175659 65 37 5.2 11.3 0.00 0.00 0.00 64 1011.9
20260831174905 64 60 7.0 11.3 0.00 0.00 0.00 65 1011.9
20260831174402 64 21 7.0 12.2 0.00 0.00 0.00 65 1011.9
20260831173904 63 45 7.0 12.2 0.00 0.00 0.00 66 1012.2
20260831173714 63 21 7.0 10.4 0.00 0.00 0.00 68 1012.2
20260831172903 62 359 6.1 10.4 0.00 0.00 0.00 72 1012.2
20260831172402 62 359 6.1 11.3 0.00 0.00 0.00 73 1012.3
20260831172009 62 26 6.1 11.3 0.00 0.00 0.00 73 1012.3
20260831170906 61 19 4.3 8.7 0.00 0.00 0.00 74 1012.3
20260831170405 61 354 5.2 9.6 0.00 0.00 0.00 75 1012.3
20260831165909 61 335 5.2 9.6 0.00 0.00 0.00 76 1012.3
20260831165414 60 346 4.3 8.7 0.00 0.00 0.00 77 1012.3
20260831165159 60 13 4.3 7.0 0.00 0.00 0.00 77 1012.3
20260831164401 60 9 4.3 6.1 0.00 0.00 0.00 78 1012.3
20260831163855 60 13 3.5 6.1 0.00 0.00 0.00 79 1012.4
20260831163345 60 347 3.5 6.1 0.00 0.00 0.00 80 1012.4
20260831162838 59 344 3.5 6.1 0.00 0.00 0.00 81 1012.4
20260831162340 59 340 3.5 5.2 0.00 0.00 0.00 81 1012.6
20260831161841 59 352 3.5 5.2 0.00 0.00 0.00 82 1012.6
20260831161336 59 352 4.3 6.1 0.00 0.00 0.00 83 1012.6
20260831161128 58 333 4.3 6.1 0.00 0.00 0.00 83 1012.8
20260831160335 58 9 4.3 6.1 0.00 0.00 0.00 84 1012.8
20260831155834 58 327 4.3 6.1 0.00 0.00 0.00 84 1012.8
20260831155332 58 354 3.5 6.1 0.00 0.00 0.00 84 1012.9
20260831154832 58 359 3.5 4.3 0.00 0.00 0.00 86 1012.9
20260831154332 58 344 3.5 5.2 0.00 0.00 0.00 86 1012.9
20260831153831 57 349 3.5 5.2 0.00 0.00 0.00 87 1012.9
20260831153335 57 341 3.5 5.2 0.00 0.00 0.00 87 1012.9
20260831153144 57 13 3.5 4.3 0.00 0.00 0.00 87 1012.9
20260831152333 57 9 3.5 4.3 0.00 0.00 0.00 87 1013.1
20260831151836 57 4 2.6 4.3 0.00 0.00 0.00 86 1013.1
20260831151342 57 21 1.7 3.5 0.00 0.00 0.00 86 1013.1
20260831150838 57 359 1.7 2.6 0.00 0.00 0.00 86 1013.1
20260831150432 57 359 1.7 2.6 0.00 0.00 0.00 86 1013.1
20260831145336 56 22 0.9 1.7 0.00 0.00 0.00 87 1013.0
20260831144831 56 39 0.9 1.7 0.00 0.00 0.00 87 1013.0
20260831144335 56 26 0.9 1.7 0.00 0.00 0.00 87 1013.0
20260831143822 56 47 0.9 2.6 0.00 0.00 0.00 88 1013.0
20260831143312 56 16 0.9 2.6 0.00 0.00 0.00 88 1013.0
20260831142808 55 16 1.7 2.6 0.00 0.00 0.00 88 1013.0
20260831142306 55 9 0.9 1.7 0.00 0.00 0.00 88 1013.0
20260831141802 55 66 0.9 1.7 0.00 0.00 0.00 88 1013.0
20260831141302 55 81 0.0 0.9 0.00 0.00 0.00 88 1013.0
20260831140841 55 81 0.0 0.0 0.00 0.00 0.00 87 1013.0
20260831135805 55 81 0.0 0.9 0.00 0.00 0.00 87 1013.0
20260831135302 54 81 0.9 0.9 0.00 0.00 0.00 86 1012.9
20260831134801 54 82 0.9 0.9 0.00 0.00 0.00 86 1012.9
20260831134303 54 82 0.9 0.9 0.00 0.00 0.00 85 1012.9
20260831133806 54 82 0.9 1.7 0.00 0.00 0.00 85 1013.1
20260831133556 54 82 0.9 1.7 0.00 0.00 0.00 85 1013.1
20260831132802 54 82 0.0 0.9 0.00 0.00 0.00 85 1013.1
20260831132308 55 82 0.0 0.9 0.00 0.00 0.00 85 1013.2
20260831131806 55 82 0.9 1.7 0.00 0.00 0.00 85 1013.2
20260831131302 55 82 0.9 1.7 0.00 0.00 0.00 85 1013.2
20260831130802 55 54 0.9 1.7 0.00 0.00 0.00 85 1013.3
20260831130301 55 9 0.0 1.7 0.00 0.00 0.00 86 1013.3
20260831130051 55 9 0.0 0.9 0.00 0.00 0.00 86 1013.3
20260831125552 55 9 0.0 1.7 0.00 0.00 0.00 86 1013.3
20260831125102 55 9 0.9 1.7 0.00 0.00 0.00 86 1013.3
20260831124302 55 9 0.9 1.7 0.00 0.00 0.00 86 1013.3
20260831123801 55 9 0.0 0.9 0.00 0.00 0.00 87 1013.4
20260831123308 56 9 0.0 0.9 0.00 0.00 0.00 87 1013.4
20260831123055 56 9 0.0 0.9 0.00 0.00 0.00 86 1013.4
20260831122256 56 9 0.0 0.9 0.00 0.00 0.00 86 1013.4
20260831121756 56 9 0.0 0.0 0.00 0.00 0.00 86 1013.4
20260831121237 56 9 0.0 0.0 0.00 0.00 0.00 86 1013.4
20260831120731 56 9 0.0 0.9 0.00 0.00 0.00 86 1013.6
20260831120226 56 9 0.0 0.9 0.00 0.00 0.00 86 1013.6
20260831115723 56 9 0.0 0.9 0.00 0.00 0.00 85 1013.6
20260831115223 56 9 0.0 0.9 0.00 0.00 0.00 85 1013.7
20260831114711 56 9 0.9 1.7 0.00 0.00 0.00 85 1013.7
20260831114208 56 9 0.9 1.7 0.00 0.00 0.00 85 1013.7
20260831113702 56 9 0.9 1.7 0.00 0.00 0.00 85 1013.8
20260831113206 56 9 0.9 1.7 0.00 0.00 0.00 85 1013.8
20260831112706 56 9 0.9 1.7 0.00 0.00 0.00 85 1013.8
20260831112512 56 9 0.9 2.6 0.00 0.00 0.00 84 1013.9
20260831111706 56 9 1.7 2.6 0.00 0.00 0.00 85 1013.9
20260831111205 56 4 0.9 2.6 0.00 0.00 0.00 85 1013.9
20260831110703 56 359 1.7 2.6 0.00 0.00 0.00 84 1013.9
20260831110137 56 359 1.7 2.6 0.00 0.00 0.00 84 1013.9
20260831105635 56 17 1.7 2.6 0.00 0.00 0.00 83 1013.9
20260831105133 56 339 0.9 2.6 0.00 0.00 0.00 83 1013.9
20260831104636 56 21 0.9 1.7 0.00 0.00 0.00 83 1013.9
20260831104131 56 21 0.9 1.7 0.00 0.00 0.00 83 1014.0
20260831103632 56 21 0.9 1.7 0.00 0.00 0.00 83 1014.0
20260831103132 56 21 0.0 1.7 0.00 0.00 0.00 82 1014.0
20260831102625 56 21 0.0 0.9 0.00 0.00 0.00 82 1014.1
20260831102128 56 21 0.0 0.9 0.00 0.00 0.00 81 1014.1
20260831101628 57 20 0.9 1.7 0.00 0.00 0.00 81 1014.1
20260831101106 57 21 0.9 1.7 0.00 0.00 0.00 81 1014.4
20260831100609 57 21 0.9 1.7 0.00 0.00 0.00 80 1014.4
20260831100145 57 21 0.9 1.7 0.00 0.00 0.00 80 1014.4
20260831094603 57 21 0.0 0.9 0.00 0.00 0.00 80 1014.4
20260831094104 57 21 0.0 0.9 0.00 0.00 0.00 80 1014.5
20260831093553 57 21 0.0 0.9 0.00 0.00 0.00 80 1014.5
20260831093050 57 21 0.0 1.7 0.00 0.00 0.00 80 1014.5
20260831092606 58 21 0.9 2.6 0.00 0.00 0.00 80 1014.4
20260831092054 58 20 1.7 2.6 0.00 0.00 0.00 80 1014.4
20260831091546 58 9 1.7 2.6 0.00 0.00 0.00 80 1014.4
20260831091042 58 4 2.6 3.5 0.00 0.00 0.00 80 1014.6
20260831090540 58 15 2.6 3.5 0.00 0.00 0.00 79 1014.6
20260831090039 58 359 2.6 3.5 0.00 0.00 0.00 79 1014.6
20260831085545 58 346 1.7 3.5 0.00 0.00 0.00 79 1014.9
20260831085036 58 4 1.7 2.6 0.00 0.00 0.00 79 1014.9
20260831084532 58 17 2.6 3.5 0.00 0.00 0.00 79 1014.9
20260831084033 58 31 2.6 3.5 0.00 0.00 0.00 78 1015.0
20260831083528 58 29 1.7 2.6 0.00 0.00 0.00 78 1015.0
20260831083029 58 32 1.7 2.6 0.00 0.00 0.00 79 1015.0
20260831082824 58 65 0.9 1.7 0.00 0.00 0.00 80 1015.0
20260831082021 59 13 0.9 1.7 0.00 0.00 0.00 79 1015.0
20260831081515 59 13 0.9 1.7 0.00 0.00 0.00 79 1015.0
20260831081010 59 17 0.0 1.7 0.00 0.00 0.00 79 1015.1
20260831080511 59 17 0.9 1.7 0.00 0.00 0.00 80 1015.1
20260831080003 59 17 0.9 2.6 0.00 0.00 0.00 79 1015.1
20260831075724 59 17 0.9 2.6 0.00 0.00 0.00 79 1015.1
20260831074955 59 9 1.7 2.6 0.00 0.00 0.00 79 1015.1
20260831074435 59 9 1.7 2.6 0.00 0.00 0.00 79 1015.1
20260831073937 60 9 0.9 1.7 0.00 0.00 0.00 78 1015.4
20260831073433 60 9 1.7 2.6 0.00 0.00 0.00 78 1015.4
20260831072931 60 9 1.7 2.6 0.00 0.00 0.00 77 1015.4
20260831072438 60 9 1.7 2.6 0.00 0.00 0.00 77 1015.4
20260831071936 60 9 1.7 2.6 0.00 0.00 0.00 76 1015.4
20260831071433 60 9 1.7 2.6 0.00 0.00 0.00 77 1015.4
20260831070929 60 9 1.7 2.6 0.00 0.00 0.00 76 1015.5
20260831070430 60 9 0.9 2.6 0.00 0.00 0.00 77 1015.5
20260831065932 60 20 1.7 2.6 0.00 0.00 0.00 77 1015.5
20260831065419 60 30 1.7 2.6 0.00 0.00 0.00 77 1015.6
20260831064921 60 15 1.7 2.6 0.00 0.00 0.00 76 1015.6
20260831064419 60 13 0.9 1.7 0.00 0.00 0.00 76 1015.6
20260831063910 61 43 0.9 1.7 0.00 0.00 0.00 76 1015.8